Time,TemperatureF,DewpointF,PressureIn,WindDirection,WindDirectionDegrees,WindSpeedMPH,WindSpeedGustMPH,Humidity,HourlyPrecipIn,Conditions,Clouds,dailyrainin,SolarRadiationWatts/m^2,SoftwareType,DateUTC
2013-07-07 00:02:00,54.0,51.0,29.74,SE,133,0.0,0.0,90,0.05,,,0.08,0.000000,,2013-07-07 08:02:00,
2013-07-07 00:12:00,54.0,51.0,29.74,SE,133,0.0,0.0,91,0.04,,,0.08,0.000000,,2013-07-07 08:12:00,
2013-07-07 00:21:00,53.0,51.0,29.74,SE,133,0.0,0.0,92,0.05,,,0.10,0.000000,,2013-07-07 08:21:00,
2013-07-07 00:33:00,53.0,51.0,29.73,SE,133,0.0,0.0,93,0.04,,,0.10,0.000000,,2013-07-07 08:33:00,
2013-07-07 00:43:00,53.0,51.0,29.73,SE,133,0.0,0.0,93,0.05,,,0.11,0.000000,,2013-07-07 08:43:00,
2013-07-07 00:53:00,53.0,51.0,29.72,SE,133,0.0,1.0,94,0.06,,,0.12,0.000000,,2013-07-07 08:53:00,
2013-07-07 01:02:00,52.0,50.0,29.72,SE,133,0.0,1.0,94,0.06,,,0.13,0.000000,,2013-07-07 09:02:00,
2013-07-07 01:12:00,52.0,50.0,29.72,SE,133,0.0,1.0,94,0.07,,,0.14,0.000000,,2013-07-07 09:12:00,
2013-07-07 01:22:00,52.0,51.0,29.71,SE,133,0.0,1.0,95,0.10,,,0.19,0.000000,,2013-07-07 09:22:00,
2013-07-07 01:34:00,52.0,51.0,29.71,SE,133,0.0,1.0,95,0.11,,,0.20,0.000000,,2013-07-07 09:34:00,
2013-07-07 01:43:00,52.0,51.0,29.71,SE,133,0.0,2.0,95,0.10,,,0.21,0.000000,,2013-07-07 09:43:00,
2013-07-07 01:53:00,52.0,51.0,29.70,NE,37,1.0,3.0,95,0.10,,,0.22,0.000000,,2013-07-07 09:53:00,
2013-07-07 02:03:00,52.0,51.0,29.70,NE,48,0.0,5.0,95,0.09,,,0.22,0.000000,,2013-07-07 10:03:00,
2013-07-07 02:12:00,52.0,51.0,29.70,NE,36,1.0,3.0,95,0.08,,,0.22,0.000000,,2013-07-07 10:12:00,
2013-07-07 02:22:00,52.0,51.0,29.69,ENE,69,0.0,3.0,95,0.08,,,0.27,0.000000,,2013-07-07 10:22:00,
2013-07-07 02:32:00,52.0,51.0,29.69,East,81,0.0,3.0,95,0.07,,,0.27,0.000000,,2013-07-07 10:32:00,
2013-07-07 02:43:00,52.0,51.0,29.69,East,79,0.0,3.0,95,0.07,,,0.28,0.000000,,2013-07-07 10:43:00,
2013-07-07 02:52:00,52.0,51.0,29.68,East,79,0.0,2.0,95,0.07,,,0.29,0.000000,,2013-07-07 10:52:00,
2013-07-07 03:02:00,52.0,51.0,29.68,East,79,1.0,2.0,95,0.07,,,0.29,0.000000,,2013-07-07 11:02:00,
2013-07-07 03:11:00,52.0,51.0,29.68,East,80,0.0,2.0,95,0.08,,,0.30,0.000000,,2013-07-07 11:11:00,
2013-07-07 03:22:00,52.0,51.0,29.67,East,80,0.0,1.0,95,0.07,,,0.34,0.000000,,2013-07-07 11:22:00,
2013-07-07 03:33:00,52.0,51.0,29.67,East,80,0.0,2.0,95,0.07,,,0.34,0.000000,,2013-07-07 11:33:00,
2013-07-07 03:43:00,52.0,51.0,29.67,East,80,0.0,1.0,96,0.07,,,0.35,0.000000,,2013-07-07 11:43:00,
2013-07-07 03:53:00,52.0,51.0,29.66,East,80,0.0,1.0,96,0.07,,,0.36,0.000000,,2013-07-07 11:53:00,
2013-07-07 04:02:00,52.0,51.0,29.66,East,80,0.0,1.0,96,0.07,,,0.36,0.000000,,2013-07-07 12:02:00,
2013-07-07 04:11:00,51.0,50.0,29.66,East,80,0.0,1.0,95,0.07,,,0.37,0.000000,,2013-07-07 12:11:00,
2013-07-07 04:22:00,51.0,50.0,29.66,East,80,0.0,1.0,95,0.05,,,0.38,0.000000,,2013-07-07 12:22:00,
2013-07-07 04:34:00,51.0,50.0,29.66,East,80,0.0,2.0,96,0.05,,,0.38,0.000000,,2013-07-07 12:34:00,
2013-07-07 04:43:00,51.0,50.0,29.65,East,80,0.0,1.0,96,0.05,,,0.39,0.000000,,2013-07-07 12:43:00,
2013-07-07 04:52:00,51.0,50.0,29.65,East,80,0.0,1.0,96,0.04,,,0.39,0.000000,,2013-07-07 12:52:00,
2013-07-07 05:02:00,51.0,50.0,29.65,East,80,1.0,2.0,96,0.04,,,0.39,0.000000,,2013-07-07 13:02:00,
2013-07-07 05:11:00,51.0,50.0,29.65,East,80,1.0,2.0,96,0.04,,,0.39,0.000000,,2013-07-07 13:11:00,
2013-07-07 05:22:00,51.0,50.0,29.64,East,80,0.0,2.0,96,0.03,,,0.39,0.000000,,2013-07-07 13:22:00,
2013-07-07 05:34:00,52.0,51.0,29.64,East,86,1.0,6.0,96,0.06,,,0.43,0.000000,,2013-07-07 13:34:00,
2013-07-07 05:43:00,52.0,51.0,29.63,NE,37,2.0,6.0,96,0.05,,,0.43,0.000000,,2013-07-07 13:43:00,
2013-07-07 05:52:00,52.0,51.0,29.63,NE,55,2.0,5.0,96,0.05,,,0.43,7.000000,,2013-07-07 13:52:00,
2013-07-07 06:02:00,52.0,51.0,29.62,NE,40,3.0,6.0,96,0.05,,,0.43,12.000000,,2013-07-07 14:02:00,
2013-07-07 06:12:00,52.0,51.0,29.62,NE,40,3.0,6.0,96,0.05,,,0.43,12.000000,,2013-07-07 14:12:00,
2013-07-07 06:22:00,52.0,51.0,29.61,NNE,32,2.0,7.0,96,0.03,,,0.45,19.000000,,2013-07-07 14:22:00,
2013-07-07 06:33:00,52.0,51.0,29.61,NE,42,3.0,9.0,96,0.02,,,0.45,18.000000,,2013-07-07 14:33:00,
2013-07-07 06:43:00,52.0,51.0,29.61,NE,39,3.0,9.0,96,0.02,,,0.45,18.000000,,2013-07-07 14:43:00,
2013-07-07 06:53:00,52.0,51.0,29.60,ENE,65,2.0,10.0,96,0.02,,,0.45,25.000000,,2013-07-07 14:53:00,
2013-07-07 07:02:00,52.0,51.0,29.60,NE,42,3.0,7.0,96,0.02,,,0.45,32.000000,,2013-07-07 15:02:00,
2013-07-07 07:11:00,52.0,51.0,29.60,East,86,1.0,9.0,96,0.02,,,0.45,33.000000,,2013-07-07 15:11:00,
2013-07-07 07:22:00,52.0,51.0,29.60,NNE,22,2.0,12.0,96,0.02,,,0.47,32.000000,,2013-07-07 15:22:00,
2013-07-07 07:33:00,52.0,51.0,29.60,NE,42,2.0,10.0,96,0.02,,,0.47,44.000000,,2013-07-07 15:33:00,
2013-07-07 07:43:00,52.0,51.0,29.60,NNE,26,3.0,10.0,96,0.02,,,0.47,54.000000,,2013-07-07 15:43:00,
2013-07-07 07:52:00,52.0,51.0,29.59,NE,44,3.0,10.0,96,0.02,,,0.47,58.000000,,2013-07-07 15:52:00,
2013-07-07 08:01:00,52.0,51.0,29.59,ENE,57,4.0,9.0,96,0.02,,,0.47,72.000000,,2013-07-07 16:01:00,
2013-07-07 08:11:00,52.0,51.0,29.59,NE,36,3.0,10.0,95,0.03,,,0.48,60.000000,,2013-07-07 16:11:00,
2013-07-07 08:22:00,52.0,51.0,29.59,NE,36,3.0,10.0,95,0.03,,,0.48,60.000000,,2013-07-07 16:22:00,
2013-07-07 08:43:00,52.0,51.0,29.59,NE,56,3.0,9.0,95,0.02,,,0.49,83.000000,,2013-07-07 16:43:00,
2013-07-07 08:53:00,53.0,52.0,29.59,East,84,4.0,10.0,95,0.02,,,0.49,79.000000,,2013-07-07 16:53:00,
2013-07-07 09:02:00,53.0,52.0,29.59,NNE,29,5.0,12.0,95,0.02,,,0.49,77.000000,,2013-07-07 17:02:00,
2013-07-07 09:11:00,53.0,52.0,29.59,ENE,64,2.0,9.0,95,0.01,,,0.49,109.000000,,2013-07-07 17:11:00,
2013-07-07 09:22:00,53.0,52.0,29.59,ENE,63,1.0,5.0,95,0.00,,,0.49,102.000000,,2013-07-07 17:22:00,
2013-07-07 09:34:00,53.0,52.0,29.59,ENE,66,2.0,5.0,95,0.00,,,0.49,91.000000,,2013-07-07 17:34:00,
2013-07-07 09:43:00,53.0,52.0,29.59,North,9,1.0,3.0,95,0.00,,,0.49,100.000000,,2013-07-07 17:43:00,
2013-07-07 09:53:00,54.0,53.0,29.59,ENE,67,1.0,5.0,95,0.00,,,0.49,114.000000,,2013-07-07 17:53:00,
2013-07-07 10:01:00,54.0,53.0,29.59,East,90,2.0,5.0,95,0.00,,,0.49,114.000000,,2013-07-07 18:01:00,
2013-07-07 10:11:00,54.0,52.0,29.59,NE,44,1.0,3.0,94,0.00,,,0.49,105.000000,,2013-07-07 18:11:00,
2013-07-07 10:22:00,54.0,52.0,29.59,NE,44,1.0,3.0,94,0.00,,,0.49,104.000000,,2013-07-07 18:22:00,
2013-07-07 10:33:00,55.0,53.0,29.59,NE,42,2.0,3.0,94,0.00,,,0.49,98.000000,,2013-07-07 18:33:00,
2013-07-07 10:43:00,55.0,53.0,29.59,NE,43,1.0,3.0,94,0.00,,,0.49,109.000000,,2013-07-07 18:43:00,
2013-07-07 10:52:00,55.0,53.0,29.59,ENE,59,1.0,3.0,94,0.00,,,0.49,120.000000,,2013-07-07 18:52:00,
2013-07-07 11:01:00,55.0,53.0,29.59,NE,50,1.0,3.0,94,0.00,,,0.49,142.000000,,2013-07-07 19:01:00,
2013-07-07 11:11:00,55.0,53.0,29.58,ENE,74,2.0,5.0,94,0.00,,,0.49,179.000000,,2013-07-07 19:11:00,
2013-07-07 11:22:00,55.0,53.0,29.58,North,4,3.0,7.0,93,0.00,,,0.49,186.000000,,2013-07-07 19:22:00,
2013-07-07 11:33:00,55.0,53.0,29.58,NE,40,2.0,8.0,93,0.00,,,0.49,188.000000,,2013-07-07 19:33:00,
2013-07-07 11:43:00,56.0,54.0,29.59,NE,42,3.0,8.0,93,0.00,,,0.49,167.000000,,2013-07-07 19:43:00,
2013-07-07 11:54:00,55.0,53.0,29.59,ENE,61,3.0,9.0,93,0.00,,,0.49,163.000000,,2013-07-07 19:54:00,
2013-07-07 12:02:00,55.0,53.0,29.59,NE,40,3.0,9.0,93,0.00,,,0.49,149.000000,,2013-07-07 20:02:00,
2013-07-07 12:11:00,55.0,53.0,29.59,NE,44,1.0,7.0,94,0.00,,,0.49,105.000000,,2013-07-07 20:11:00,
2013-07-07 12:22:00,55.0,53.0,29.60,NE,54,2.0,9.0,94,0.03,,,0.52,111.000000,,2013-07-07 20:22:00,
2013-07-07 12:33:00,54.0,52.0,29.59,NNE,13,1.0,6.0,94,0.04,,,0.53,120.000000,,2013-07-07 20:33:00,
2013-07-07 12:42:00,54.0,53.0,29.59,ENE,58,0.0,3.0,95,0.05,,,0.54,165.000000,,2013-07-07 20:42:00,
2013-07-07 12:53:00,54.0,53.0,29.60,NNE,32,3.0,7.0,95,0.05,,,0.54,105.000000,,2013-07-07 20:53:00,
2013-07-07 13:02:00,54.0,53.0,29.60,ENE,62,1.0,3.0,95,0.06,,,0.55,269.000000,,2013-07-07 21:02:00,
2013-07-07 13:11:00,55.0,54.0,29.60,NE,34,1.0,6.0,96,0.06,,,0.55,239.000000,,2013-07-07 21:11:00,
2013-07-07 13:22:00,55.0,54.0,29.60,NE,34,1.0,6.0,96,0.06,,,0.55,239.000000,,2013-07-07 21:22:00,
2013-07-07 13:33:00,55.0,54.0,29.60,ENE,71,1.0,6.0,95,0.06,,,0.59,230.000000,,2013-07-07 21:33:00,
2013-07-07 13:43:00,55.0,54.0,29.60,NNE,19,2.0,3.0,95,0.05,,,0.59,236.000000,,2013-07-07 21:43:00,
2013-07-07 13:53:00,55.0,53.0,29.60,NNE,19,2.0,3.0,94,0.05,,,0.59,202.000000,,2013-07-07 21:53:00,
2013-07-07 14:01:00,55.0,53.0,29.60,NNE,19,1.0,3.0,92,0.04,,,0.59,192.000000,,2013-07-07 22:01:00,
2013-07-07 14:11:00,55.0,53.0,29.61,NNE,19,0.0,2.0,93,0.04,,,0.59,290.000000,,2013-07-07 22:11:00,
2013-07-07 14:22:00,55.0,53.0,29.61,NNE,19,0.0,2.0,93,0.04,,,0.59,290.000000,,2013-07-07 22:22:00,
2013-07-07 14:33:00,56.0,53.0,29.61,NNE,19,2.0,3.0,91,0.00,,,0.59,236.000000,,2013-07-07 22:33:00,
2013-07-07 14:43:00,55.0,52.0,29.61,North,5,2.0,3.0,91,0.01,,,0.60,250.000000,,2013-07-07 22:43:00,
2013-07-07 14:53:00,55.0,53.0,29.62,NW,317,1.0,3.0,92,0.03,,,0.62,425.000000,,2013-07-07 22:53:00,
2013-07-07 15:01:00,56.0,54.0,29.62,NW,317,1.0,3.0,93,0.03,,,0.62,513.000000,,2013-07-07 23:01:00,
2013-07-07 15:11:00,57.0,54.0,29.62,NNW,345,1.0,3.0,90,0.03,,,0.62,432.000000,,2013-07-07 23:11:00,
2013-07-07 15:22:00,57.0,54.0,29.62,NNW,345,0.0,3.0,90,0.04,,,0.63,292.000000,,2013-07-07 23:22:00,
2013-07-07 15:33:00,57.0,54.0,29.62,NNW,345,1.0,2.0,91,0.04,,,0.63,320.000000,,2013-07-07 23:33:00,
2013-07-07 15:43:00,57.0,54.0,29.63,SSW,211,1.0,3.0,91,0.03,,,0.63,144.000000,,2013-07-07 23:43:00,
2013-07-07 15:52:00,56.0,53.0,29.63,SW,232,2.0,8.0,89,0.01,,,0.63,318.000000,,2013-07-07 23:52:00,
2013-07-07 16:01:00,55.0,52.0,29.63,NNW,342,2.0,7.0,90,0.01,,,0.63,200.000000,,2013-07-08 00:01:00,
2013-07-07 16:11:00,55.0,52.0,29.63,NNW,342,2.0,7.0,90,0.01,,,0.63,200.000000,,2013-07-08 00:11:00,
2013-07-07 16:22:00,54.0,52.0,29.63,SSW,202,2.0,7.0,92,0.03,,,0.66,251.000000,,2013-07-08 00:22:00,
2013-07-07 16:33:00,54.0,52.0,29.64,West,269,2.0,7.0,92,0.03,,,0.66,241.000000,,2013-07-08 00:33:00,
2013-07-07 16:43:00,54.0,52.0,29.65,SW,224,1.0,8.0,93,0.03,,,0.66,214.000000,,2013-07-08 00:43:00,
2013-07-07 16:53:00,53.0,51.0,29.65,WSW,243,2.0,9.0,93,0.03,,,0.66,357.000000,,2013-07-08 00:53:00,
2013-07-07 17:01:00,53.0,51.0,29.64,SW,231,2.0,8.0,94,0.03,,,0.66,455.000000,,2013-07-08 01:01:00,
2013-07-07 17:11:00,53.0,51.0,29.65,SW,227,3.0,7.0,93,0.03,,,0.66,362.000000,,2013-07-08 01:11:00,
2013-07-07 17:21:00,53.0,51.0,29.65,SE,139,1.0,8.0,93,0.02,,,0.68,278.000000,,2013-07-08 01:21:00,
2013-07-07 17:32:00,53.0,51.0,29.65,SW,219,1.0,6.0,93,0.02,,,0.68,239.000000,,2013-07-08 01:32:00,
2013-07-07 17:42:00,53.0,51.0,29.65,West,277,1.0,6.0,94,0.02,,,0.68,262.000000,,2013-07-08 01:42:00,
2013-07-07 17:52:00,52.0,50.0,29.65,SSW,203,1.0,5.0,94,0.02,,,0.68,330.000000,,2013-07-08 01:52:00,
2013-07-07 18:02:00,52.0,50.0,29.66,WNW,299,0.0,5.0,94,0.02,,,0.68,216.000000,,2013-07-08 02:02:00,
2013-07-07 18:11:00,52.0,50.0,29.66,South,178,1.0,7.0,93,0.02,,,0.68,220.000000,,2013-07-08 02:11:00,
2013-07-07 18:22:00,52.0,50.0,29.66,West,271,1.0,6.0,94,0.00,,,0.68,181.000000,,2013-07-08 02:22:00,
2013-07-07 18:33:00,52.0,50.0,29.66,SSW,211,2.0,7.0,93,0.01,,,0.69,181.000000,,2013-07-08 02:33:00,
2013-07-07 18:42:00,52.0,50.0,29.66,WSW,250,0.0,5.0,94,0.01,,,0.69,214.000000,,2013-07-08 02:42:00,
2013-07-07 18:52:00,52.0,50.0,29.66,WSW,243,0.0,3.0,94,0.01,,,0.69,214.000000,,2013-07-08 02:52:00,
2013-07-07 19:01:00,52.0,50.0,29.66,SW,219,0.0,3.0,94,0.01,,,0.69,163.000000,,2013-07-08 03:01:00,
2013-07-07 19:11:00,51.0,49.0,29.66,South,188,1.0,6.0,93,0.01,,,0.69,134.000000,,2013-07-08 03:11:00,
2013-07-07 19:22:00,51.0,49.0,29.66,South,180,1.0,5.0,94,0.01,,,0.69,132.000000,,2013-07-08 03:22:00,
2013-07-07 19:33:00,51.0,49.0,29.66,West,265,0.0,6.0,94,0.00,,,0.69,135.000000,,2013-07-08 03:33:00,
2013-07-07 19:42:00,51.0,49.0,29.66,SSW,200,1.0,3.0,94,0.00,,,0.69,141.000000,,2013-07-08 03:42:00,
2013-07-07 19:52:00,51.0,49.0,29.66,SSE,161,0.0,6.0,94,0.00,,,0.69,193.000000,,2013-07-08 03:52:00,
2013-07-07 20:01:00,51.0,50.0,29.66,South,172,1.0,6.0,95,0.00,,,0.69,246.000000,,2013-07-08 04:01:00,
2013-07-07 20:11:00,51.0,49.0,29.66,SW,217,1.0,3.0,94,0.00,,,0.69,135.000000,,2013-07-08 04:11:00,
2013-07-07 20:22:00,51.0,49.0,29.66,SW,217,1.0,3.0,94,0.00,,,0.69,135.000000,,2013-07-08 04:22:00,
2013-07-07 20:33:00,51.0,49.0,29.66,South,174,1.0,6.0,93,0.00,,,0.69,127.000000,,2013-07-08 04:33:00,
2013-07-07 20:42:00,51.0,49.0,29.66,SSW,208,1.0,7.0,92,0.00,,,0.69,156.000000,,2013-07-08 04:42:00,
2013-07-07 20:52:00,51.0,49.0,29.66,SSE,165,1.0,5.0,93,0.00,,,0.69,162.000000,,2013-07-08 04:52:00,
2013-07-07 21:01:00,51.0,49.0,29.66,SW,221,1.0,5.0,92,0.00,,,0.69,156.000000,,2013-07-08 05:01:00,
2013-07-07 21:11:00,52.0,49.0,29.66,SW,221,1.0,5.0,91,0.00,,,0.69,121.000000,,2013-07-08 05:11:00,
2013-07-07 21:22:00,52.0,49.0,29.66,West,279,1.0,3.0,91,0.00,,,0.69,97.000000,,2013-07-08 05:22:00,
2013-07-07 21:33:00,51.0,48.0,29.67,West,263,1.0,3.0,90,0.00,,,0.69,72.000000,,2013-07-08 05:33:00,
2013-07-07 21:43:00,51.0,48.0,29.67,SSW,199,0.0,3.0,91,0.00,,,0.69,58.000000,,2013-07-08 05:43:00,
2013-07-07 21:53:00,51.0,48.0,29.68,SSW,199,0.0,2.0,91,0.00,,,0.69,58.000000,,2013-07-08 05:53:00,
2013-07-07 22:01:00,51.0,49.0,29.68,SSW,193,1.0,3.0,92,0.00,,,0.69,47.000000,,2013-07-08 06:01:00,
2013-07-07 22:11:00,51.0,49.0,29.68,SW,216,0.0,2.0,92,0.00,,,0.69,60.000000,,2013-07-08 06:11:00,
2013-07-07 22:22:00,51.0,48.0,29.68,South,179,1.0,5.0,91,0.00,,,0.69,70.000000,,2013-07-08 06:22:00,
2013-07-07 22:33:00,51.0,49.0,29.68,WSW,244,0.0,2.0,92,0.00,,,0.69,33.000000,,2013-07-08 06:33:00,
2013-07-07 22:42:00,51.0,48.0,29.68,SSW,200,1.0,3.0,91,0.00,,,0.69,26.000000,,2013-07-08 06:42:00,
2013-07-07 22:52:00,51.0,48.0,29.68,WSW,247,1.0,3.0,91,0.00,,,0.69,19.000000,,2013-07-08 06:52:00,
2013-07-07 23:02:00,50.0,48.0,29.68,SW,216,1.0,3.0,92,0.00,,,0.69,11.000000,,2013-07-08 07:02:00,
2013-07-07 23:11:00,50.0,48.0,29.68,SSW,205,0.0,3.0,92,0.00,,,0.69,7.000000,,2013-07-08 07:11:00,
2013-07-07 23:22:00,50.0,48.0,29.69,West,271,1.0,3.0,93,0.00,,,0.67,5.000000,,2013-07-08 07:22:00,
2013-07-07 23:34:00,49.0,47.0,29.69,West,275,1.0,6.0,93,0.00,,,0.66,5.000000,,2013-07-08 07:34:00,
2013-07-07 23:44:00,49.0,47.0,29.69,South,172,0.0,3.0,94,0.00,,,0.66,0.000000,,2013-07-08 07:44:00,
2013-07-07 23:52:00,49.0,47.0,29.69,WNW,283,0.0,2.0,94,0.00,,,0.65,0.000000,,2013-07-08 07:52:00,